Location: Montamat
(43.4852°N, 0.8444°E)
Time: 04:59:49
(UTC+00:00)

Cosmos 1544 Rocket - Pass Details

Date: 14 May 2026
Orbit: 597 x 624 km, 82.5° (Epoch: 6 June)

Event Time Altitude Azimuth Distance (km) Brightness Sun altitude
Exits shadow 21:22:17 16° 206° (SSW) 1,587 5.4 -18.8°
Maximum altitude 21:25:34 55° 281° (W) 733 4.1 -19.1°
Drops below altitude 10° 21:29:50 10° 360° (N) 1,959 6.9 -19.6°
Sets 21:32:05 0° 4° (N) 2,863 7.8 -19.8°
